This demonstration page uses our WeatherBlox Daily Observations layout. Learn more.

Left ArrowRight Arrow

39.01783, -85.05884

Hourly Observations for October 15, 2018

Temp ( °F °C ) Dew Point ( °F °C ) Humidity (%) Winds ( mph kmh ) Pressure ( in mb ) Visibility ( mi km ) Precip ( " mm )
12:52 am 00:52 Cloudy with Drizzle 56 13.3 55 12.8 97 97 S 3 6 29.97 1015 1 2 N/A
1:52 am 01:52 Cloudy with Mist and Fog 57 13.9 57 13.9 100 100 SSW 5 7 29.95 1014 1 2 0.01 0.25
2:26 am 02:26 Mostly Cloudy with Mist and Fog 58 14.4 58 14.4 100 100 W 6 9 29.97 1015 0 0 N/A
2:52 am 02:52 Mostly Cloudy with Mist and Fog 57 13.9 55 12.8 93 93 W 3 6 29.96 1015 0 0 N/A
3:52 am 03:52 Mostly Cloudy with Fog 57 13.9 57 13.9 100 100 W 5 7 29.96 1014 0 0 N/A
4:52 am 04:52 Mostly Cloudy with Fog 57 13.9 57 13.9 100 100 W 7 11 29.96 1015 0 0 N/A
5:52 am 05:52 Cloudy with Light Rain 57 13.9 57 13.9 100 100 WSW 7 11 29.98 1015 0 0 0.01 0.25
6:12 am 06:12 Cloudy with Light Rain 57 13.9 57 13.9 100 100 WSW 9 15 30.00 1016 2 2 0.01 0.25
6:52 am 06:52 Cloudy with Mist and Fog 57 13.9 57 13.9 100 100 SSW 6 9 29.97 1015 3 5 0.01 0.25
7:01 am 07:01 Cloudy with Mist and Fog 57 13.9 57 13.9 100 100 S 8 13 29.97 1015 3 5 N/A
7:52 am 07:52 Cloudy with Light Rain 58 14.4 58 14.4 100 100 W 8 13 29.99 1016 3 5 0.01 0.25
8:52 am 08:52 Cloudy with Mist and Fog 57 13.9 56 13.3 96 96 WSW 9 15 30.02 1017 4 6 N/A
9:52 am 09:52 Cloudy 56 13.3 55 12.8 97 97 W 13 20 30.05 1018 7 11 N/A
10:15 am 10:15 Cloudy with Light Rain 56 13.3 55 12.8 97 97 W 10 17 30.06 1018 3 5 N/A
10:52 am 10:52 Cloudy with Mist and Fog 55 12.8 54 12.2 96 96 WNW 9 15 30.07 1018 3 5 N/A
11:10 am 11:10 Cloudy 55 12.8 54 12.2 96 96 WNW 10 17 30.09 1019 10 16 N/A
11:12 am 11:12 Cloudy 55 12.8 54 12.2 96 96 WNW 12 19 30.09 1019 8 13 N/A
11:52 am 11:52 Cloudy with Light Rain 55 12.8 54 12.2 96 96 WNW 10 17 30.09 1019 6 10 N/A
11:54 am 11:54 Cloudy with Light Rain 55 12.8 54 12.2 96 96 WNW 13 20 30.09 1019 3 5 N/A
12:26 pm 12:26 Cloudy with Mist and Fog 54 12.2 53 11.7 97 97 WNW 15 24 30.09 1019 3 5 N/A
12:52 pm 12:52 Cloudy 54 12.2 52 11.1 93 93 WNW 14 22 30.12 1020 8 13 N/A
1:35 pm 13:35 Cloudy 54 12.2 50 10 87 87 WNW 15 24 30.12 1020 10 16 N/A
1:52 pm 13:52 Cloudy 54 12.2 50 10 87 87 WNW 13 20 30.11 1020 10 16 N/A
2:52 pm 14:52 Cloudy 52 11.1 48 8.9 86 86 NW 15 24 30.13 1020 10 16 N/A
3:52 pm 15:52 Cloudy 52 11.1 47 8.3 83 83 WNW 13 20 30.14 1021 10 16 N/A
4:52 pm 16:52 Cloudy 52 11.1 45 7.2 77 77 NW 14 22 30.15 1021 10 16 N/A
5:52 pm 17:52 Cloudy 50 10 44 6.7 80 80 WNW 15 24 30.17 1022 10 16 N/A
6:23 pm 18:23 Cloudy 49 9.4 44 6.7 83 83 WNW 14 22 30.21 1023 10 16 N/A
6:36 pm 18:36 Cloudy 49 9.4 44 6.7 83 83 NW 9 15 30.21 1023 10 16 N/A
6:52 pm 18:52 Cloudy 48 8.9 43 6.1 83 83 WNW 9 15 30.19 1022 10 16 N/A
7:34 pm 19:34 Mostly Cloudy 47 8.3 41 5 80 80 NW 10 17 30.24 1024 10 16 N/A
7:52 pm 19:52 Mostly Cloudy 47 8.3 41 5 80 80 NW 8 13 30.22 1023 10 16 N/A
8:52 pm 20:52 Cloudy 45 7.2 40 4.4 83 83 NW 10 17 30.26 1025 10 16 N/A
9:52 pm 21:52 Cloudy 44 6.7 38 3.3 79 79 NW 8 13 30.27 1025 10 16 N/A
10:52 pm 22:52 Cloudy 43 6.1 38 3.3 82 82 WNW 5 7 30.27 1025 10 16 N/A
11:52 pm 23:52 Cloudy 41 5 39 3.9 93 93 N N/A 30.28 1025 10 16 N/A

Powered by AerisWeather